Location: Newark
(41.3300°N, 14.0200°E)
Time: 21:08:05
(UTC+00:00)

ISS - Visible Passes

Search period start: 29 January 2020 00:00
Search period end: 08 February 2020 00:00
Orbit: 416 x 423 km, 51.6° (Epoch: 30 January)

Date Brightness Start Highest point End Pass type
(mag) Time Alt. Az. Time Alt. Az. Time Alt. Az.
29 Jan -1.0 18:20:19 10° NNW 18:21:02 13° NNW 18:21:02 13° NNW visible
30 Jan -1.5 17:32:39 10° NNW 17:34:37 14° N 17:35:26 13° NNE visible
31 Jan -1.5 16:44:50 10° NW 16:46:46 14° N 16:48:43 10° NNE visible
31 Jan -1.2 18:21:51 10° NW 18:22:49 15° NNW 18:22:49 15° NNW visible
01 Feb -1.9 17:34:22 10° NNW 17:36:44 17° NNE 17:37:17 17° NNE visible
02 Feb -1.6 16:46:48 10° NNW 16:48:54 15° N 16:51:02 10° NE visible
02 Feb -1.7 18:23:14 10° NW 18:24:45 22° NNW 18:24:45 22° NNW visible
03 Feb -2.6 17:35:45 10° NW 17:38:42 27° NNE 17:39:20 25° NE visible
04 Feb -2.1 16:48:15 10° NW 16:50:55 21° NNE 16:53:34 10° ENE visible
04 Feb -2.6 18:24:40 10° NW 18:26:59 40° WNW 18:26:59 40° WNW visible
05 Feb -3.7 17:37:05 10° NW 17:40:26 58° NNE 17:41:48 31° E visible
05 Feb -0.2 19:14:39 10° W 19:14:47 11° W 19:14:47 11° W visible
06 Feb -3.1 16:49:32 10° NW 16:52:44 37° NNE 16:55:54 10° E visible
06 Feb -2.0 18:26:29 10° WNW 18:29:27 28° SW 18:29:47 28° SSW visible
07 Feb -2.9 17:38:37 10° WNW 17:41:54 49° SW 17:45:00 11° SE visible
